Вернуться в каталог

STARLINK-5835

АктивенСвязьVLEO
NORAD 55772·PAYLOAD·🇺🇸 United States

Запущен Mar 3, 2023 с Vandenberg Space Force Base

Loading…

Ближайшие Пролёты (ближайшие 24 часа)

TLE

СвежийSource: CelesTrak SupGP

Эпоха: Sep 15, 2026, 03:01 UTC

1 55772C 23028AH  26258.12618056 -.00025509  00000+0 -21377-2 0  2585
2 55772  69.9998 106.7034 0002938 272.9778  20.8708 14.98345032    18

Отслеживайте STARLINK-5835 в реальном времени с AllMySat

Download on the App Store